Weather History for Borden, ON

Change the Weather History Date:

Thursday, January 16, 2014

  Actual Average Record
Temperature  
Mean Temperature 20 °F -  
Max Temperature 26 °F 26 °F 38 °F (2013)
Min Temperature 14 °F 10 °F -13 °F (2009)
Degree Days  
Heating Degree Days 45    
Moisture  
Dew Point 18 °F    
Average Humidity 84    
Maximum Humidity 100    
Minimum Humidity 55    
Precipitation  
Precipitation 0.02 in - - ()
Sea Level Pressure  
Sea Level Pressure 29.82 in    
Wind  
Wind Speed 7 mph ()    
Max Wind Speed 21 mph    
Max Gust Speed 28 mph    
Visibility 5.2 miles    
Events Snow    
Averages and records for this station are not official NWS values.
T = Trace of Precipitation, MM = Missing Value Source: Averaged Metar Reports

Daily Weather History Graph

Daily Weather History Graph

Search for Another Location

Airport:

Trip Planner

Search our weather history database for the weather conditions in past years. The results will help you decide how hot, cold, wet, or windy it might be!

Date:

Astronomy

Jan. 16, 2014 Rise Set
Actual Time 7:51 AM EST 5:07 PM EST
Civil Twilight 7:19 AM EST 5:40 PM EST
Nautical Twilight 6:43 AM EST 6:15 PM EST
Astronomical Twilight 6:08 AM EST 6:50 PM EST
Moon 6:01 PM EST (1/16) 7:40 AM EST (1/16)
Length of Visible Light 10h 20m
Length of Day
9h 16m
Full, 100% of the Moon is Illuminated
Jan 16
Full
Jan 24
Last Quarter
Jan 30
New
Feb 6
First Quarter
Feb 14
Full

Hourly Weather History & Observations

Time (EST) Temp. Windchill Dew Point Humidity Pressure Visibility Wind Dir Wind Speed Gust Speed Precip Events Conditions
12:00 AM 19.4 °F 12.8 °F 14.0 °F 80% 29.94 in 9.0 mi SE 4.6 mph - N/A   Scattered Clouds
1:00 AM 20 °F - 13 °F 62% 29.95 in 9 mi South 4.6 mph - -   Overcast
1:00 AM 21.2 °F 14.9 °F 12.2 °F 68% 29.95 in 9.0 mi South 4.6 mph - N/A   Overcast
2:00 AM 19.4 °F 12.8 °F 14.0 °F 80% 29.93 in 9.0 mi ENE 4.6 mph - N/A   Overcast
3:00 AM 17.6 °F 8.2 °F 12.2 °F 79% 29.92 in 9.0 mi East 6.9 mph - N/A   Partly Cloudy
3:27 AM 15.8 °F - 10.4 °F 79% 29.88 in 9.0 mi East 2.3 mph - N/A   Mostly Cloudy
4:00 AM 15.8 °F - 12.2 °F 86% 29.93 in 9.0 mi Calm Calm - N/A   Overcast
5:00 AM 17.6 °F 7.3 °F 14.0 °F 86% 29.91 in 9.0 mi ENE 8.1 mph - N/A   Mostly Cloudy
5:11 AM 17.6 °F 7.3 °F 14.0 °F 86% 29.87 in 9.0 mi ENE 8.1 mph - N/A   Scattered Clouds
6:00 AM 17.6 °F 7.3 °F 14.0 °F 86% 29.91 in 9.0 mi ENE 8.1 mph - N/A   Scattered Clouds
7:00 AM 17 °F - 13 °F 77% 29.90 in 9 mi ENE 8.1 mph - -  
7:00 AM 17.6 °F 6.4 °F 12.2 °F 79% 29.90 in 9.0 mi ENE 9.2 mph - N/A   Partly Cloudy
8:00 AM 15.8 °F 5.1 °F 10.4 °F 79% 29.89 in 9.0 mi ENE 8.1 mph - N/A   Clear
9:00 AM 17.6 °F 5.7 °F 14.0 °F 86% 29.89 in 9.0 mi ENE 10.4 mph - N/A   Scattered Clouds
9:48 AM 21.2 °F 8.9 °F 15.8 °F 80% 29.85 in 9.0 mi East 12.7 mph - N/A   Mostly Cloudy
10:00 AM 21.2 °F 8.9 °F 17.6 °F 86% 29.89 in 9.0 mi East 12.7 mph 18.4 mph N/A   Mostly Cloudy
11:00 AM 24.8 °F 11.1 °F 15.8 °F 69% 29.87 in 9.0 mi East 18.4 mph 27.6 mph N/A   Mostly Cloudy
11:36 AM 24.8 °F 10.3 °F 15.8 °F 69% 29.81 in 9.0 mi East 20.7 mph - N/A   Mostly Cloudy
11:55 AM 24.8 °F 11.9 °F 15.8 °F 69% 29.82 in 9.0 mi East 16.1 mph 27.6 mph N/A   Overcast
12:00 PM 24.8 °F 13.4 °F 17.6 °F 74% 29.86 in 9.0 mi East 12.7 mph 19.6 mph N/A   Overcast
12:38 PM 24.8 °F 12.4 °F 15.8 °F 69% 29.80 in 9.0 mi East 15.0 mph 21.9 mph N/A   Overcast
1:00 PM 26 °F - 16 °F 55% 29.83 in 9 mi East 15.0 mph - -   Overcast
1:00 PM 26.6 °F 14.7 °F 15.8 °F 64% 29.83 in 9.0 mi East 15.0 mph - N/A   Overcast
2:00 PM 26.6 °F 14.7 °F 14.0 °F 59% 29.80 in 9.0 mi ENE 15.0 mph - N/A   Overcast
3:00 PM 26.6 °F - 15.8 °F 64% 29.80 in 9.0 mi North - - N/A   Overcast
4:00 PM 24.8 °F - 15.8 °F 69% 29.82 in 9.0 mi North - - N/A   Overcast
4:40 PM 24.8 °F - 15.8 °F 69% 29.78 in 9.0 mi North - - N/A   Overcast
4:52 PM 24.8 °F - 17.6 °F 74% 29.78 in 5.0 mi North - - N/A   Unknown
4:58 PM 24.8 °F - 19.4 °F 80% 29.78 in 2.5 mi North - - N/A Snow Light Snow
5:00 PM 23.0 °F - 19.4 °F 86% 29.83 in 2.0 mi North - - N/A Snow Light Snow
5:05 PM 23.0 °F - 19.4 °F 86% 29.78 in 1.2 mi North - - N/A Snow Light Snow
6:00 PM 23.0 °F - 21.2 °F 93% 29.83 in 1.2 mi North - - N/A Snow Light Snow
6:14 PM 23.0 °F - 21.2 °F 93% 29.78 in 1.2 mi North - - N/A Snow Light Snow
6:27 PM 23.0 °F - 21.2 °F 93% 29.78 in 2.0 mi North - - N/A Snow Light Snow
6:50 PM 23.0 °F - 21.2 °F 93% 29.78 in 1.5 mi North - - N/A Snow Light Snow
7:00 PM 24 °F - 21 °F 85% 29.82 in 2 mi ENE 8.1 mph - - Snow Light Snow
7:00 PM 23.0 °F - 21.2 °F 93% 29.82 in 1.8 mi North - - N/A Snow Light Snow
7:10 PM 23.0 °F - 21.2 °F 93% 29.77 in 1.2 mi North - - N/A Snow Light Snow
8:00 PM 24.8 °F - 21.2 °F 86% 29.81 in 1.2 mi North - - N/A Snow Light Snow
8:18 PM 24.8 °F - 23.0 °F 93% 29.77 in 1.6 mi North - - N/A Snow Light Snow
8:33 PM 24.8 °F - 23.0 °F 93% 29.77 in 1.6 mi North - - N/A Snow Light Snow
9:00 PM 24.8 °F - 23.0 °F 93% 29.81 in 1.8 mi North - - N/A Snow Light Snow
10:00 PM 24.8 °F - 23.0 °F 93% 29.81 in 1.8 mi North - - N/A Snow Light Snow
10:13 PM 24.8 °F - 23.0 °F 93% 29.77 in 1.2 mi North - - N/A Snow Light Snow
10:55 PM 24.8 °F - 23.0 °F 93% 29.76 in 1.6 mi North - - N/A Snow Light Snow
11:00 PM 24.8 °F - 23.0 °F 93% 29.80 in 2.0 mi North - - N/A Snow Light Snow
11:01 PM 24.8 °F - 23.0 °F 93% 29.76 in 2.2 mi North - - N/A Snow Light Snow
11:13 PM 24.8 °F - 23.0 °F 93% 29.75 in 2.2 mi North - - N/A Snow Light Snow
11:18 PM 24.8 °F - 23.0 °F 93% 29.76 in 1.2 mi North - - N/A Snow Light Snow
11:23 PM 24.8 °F - 24.8 °F 100% 29.75 in 0.8 mi North - - N/A Snow Light Snow
11:25 PM 24.8 °F - 24.8 °F 100% 29.75 in 0.8 mi North - - N/A Snow Light Snow
11:26 PM 24.8 °F - 24.8 °F 100% 29.75 in 0.8 mi North - - N/A Snow Light Snow
11:28 PM 24.8 °F - 24.8 °F 100% 29.75 in 0.6 mi North - - N/A Snow Light Snow
11:39 PM 24.8 °F - 24.8 °F 100% 29.75 in 1.0 mi North - - N/A Snow Light Snow
11:56 PM 26.6 °F - 24.8 °F 93% 29.75 in 2.5 mi North - - N/A Snow Light Snow
11:57 PM 24.8 °F - 24.8 °F 100% 29.75 in 2.5 mi North - - N/A Snow Light Snow